カタログに戻る

CZ-6A DEB

運用中PO
NORAD 61146·DEBRIS·🇨🇳 China

打ち上げ Aug 6, 2024 から Taiyuan Satellite Launch Center

Loading…

次のパス (今後24時間)

TLE

最新Source: Space-Track

元期: Sep 14, 2026, 00:17 UTC

1 61146U 24140QQ  26257.01245734  .00002159  00000-0  87838-3 0  9991
2 61146  89.1295 276.3324 0077705 299.5827  59.7638 14.25622364107044

AllMySatでCZ-6A DEBをリアルタイム追跡

Download on the App Store